Tracking 19242 objects as of 16-Aug-2018
HD Live streaming from Space Station
objects crossing your sky now

FLOCK 3P 60

Track FLOCK 3P 60 now!
10-day predictions
FLOCK 3P 60 is classified as:


NORAD ID: 41976
Int'l Code: 2017-008AE
Perigee: 493.0 km
Apogee: 505.6 km
Inclination: 97.4 °
Period: 94.5 minutes
Semi major axis: 6870 km
RCS: Unknown
Launch date: February 15, 2017
Source: United States (US)
Launch site: SRIHARIKOTA (SRI)
aabbcc
Your satellite tracking list
Your tracking list is empty




NASA's NSSDC Master Catalog

Two Line Element Set (TLE):
1 41976U 17008AE  18227.92328255 +.00001105 +00000-0 +47768-4 0  9992
2 41976 097.4466 292.5147 0009188 135.7845 224.4128 15.24547025082383
Source of the keplerian elements: AFSPC